Location: *
(34.6903°N, 135.5184°E)
Time: 06:38:34
(UTC+00:00)

Meteor 1-27 Rocket - Pass Details

Date: 22 September 2019
Orbit: 829 x 911 km, 81.3° (Epoch: 18 October)

Event Time Altitude Azimuth Distance (km) Brightness Sun altitude
Exits shadow 19:21:24 30° 253° (WSW) 1,546 4.5 -18.1°
Maximum altitude 19:22:57 35° 284° (WNW) 1,409 4.4 -17.8°
Drops below altitude 10° 19:28:11 10° 349° (N) 2,539 6.2 -16.7°
Sets 19:30:51 0° 358° (N) 3,468 7.0 -16.2°
